STARLINK-31792, 60132

Orbit data source: Space-Track

STARLINK-31792, 60132 is a payload satellite owned by SpaceX/Seattle (US) in LEO that was launched on Mon, 24 Jun 2024 UTC via an FALCON 9 launch vehicle from the Air Force Western Test Range (AFWTR). Payload-class satellites include a variety of spacecraft equipped with specific instruments for various scientific and technological missions. These include communications satellites like Starlink; space stations such as the ISS; scientific satellites like the Hubble; Earth observation satellites from companies like Planet Labs, Umbra, and HawkEye 360; GPS; miniature CubeSats for education and research; and military/defense satellites.

Loading next visibility...
Identifier
60132, 2024-118V
Orbit
LEO
Country
Flag of USUS
Related business
Manufacturer
SpaceX/Seattle
Mission
Operational Commercial Communications
Bus & Motor
STARLINK V2M, Unknown motor
Mass
730 kg wet, ~700 kg dry
Launch date (UTC)
2024-06-24 (1 year ago)
Launch vehicle
FALCON 9
Launch site
Air Force Western Test Range (AFWTR)
Object type
Payload
Rocket body
Debris
Shape & HBR
Box + 2 Pan, 17.7 m
Radar Cross Section
33.884 m², Large (>1 m²)

Expand to show TLE details & history
Last TLE update: 15 hours ago

TLE from 15 hours ago
0 STARLINK-31792
1 60132U 24118V   25297.21009941  .00000603  00000-0  32517-4 0  9990
2 60132  53.1611 298.2714 0001475  87.8054 272.3116 15.30184979 74834
Epoch: 2025-10-24T05:02Z
TLE epoch observation values (Epoch: 2025-10-24T05:02:32.589Z)
Latitude
0.00003°
Longitude
-170.22264°
Altitude
476.119 km
Speed
7.629 km/s
True Right ascension
19h 53m 05s
True Declination
0° 00' 00"
Sunlit
Object was in daylight at epoch
Visualization orbit readout
Latitude
Unknown
Longitude
Unknown
Altitude
Unknown
Speed
Unknown
Apparent Right ascension
Unknown
Apparent Declination
Unknown
Sunlit
N/A
Visualization observer readout
Local Sidereal Time
15:22:07
Azimuth
Unknown
Elevation
Unknown
Doppler factor
Unknown
Orbital elements
Apogee altitude
476.527 km
Perigee altitude
474.505 km
Semi-major axis
6,853.653 km
Eccentricity
0.00015
Inclination
53.1611°
RAAN
298.2714°
Arg. of periapsis
87.8054°
True anomaly
272.29471°
Mean anomaly
272.3116°
Eccentric anomaly
272.30316°
Mean motion
3.82525 °/min
Orbital period
94.11 mins
BSTAR
0.000032517
Loading maneuver chart data...
Computing Atmospheric mass density...
Loading historical data...
Loading historical data...
Loading historical data...
Loading historical data...
Loading historical data...
Loading historical data...
Loading historical data...

Documentation

Showing up to 5 results
|